TimePST,TemperatureF,Dew PointF,Humidity,Sea Level PressureIn,VisibilityMPH,Wind Direction,Wind SpeedMPH,Gust SpeedMPH,PrecipitationIn,Events,Conditions,WindDirDegrees,DateUTC
12:15 AM,35.6,35.6,100,30.14,5.0,SE,3.5,-,N/A,,Clear,130,2014-03-05 08:15:00
12:35 AM,35.6,35.6,100,30.14,4.0,Calm,Calm,-,N/A,,Clear,0,2014-03-05 08:35:00
12:55 AM,35.6,35.6,100,30.14,5.0,SE,5.8,-,N/A,,Clear,130,2014-03-05 08:55:00
1:15 AM,35.6,35.6,100,30.13,5.0,Calm,Calm,-,N/A,,Clear,0,2014-03-05 09:15:00
1:35 AM,35.6,35.6,100,30.13,5.0,WNW,5.8,-,N/A,,Clear,290,2014-03-05 09:35:00
1:55 AM,35.6,35.6,100,30.14,5.0,Calm,Calm,-,N/A,,Clear,0,2014-03-05 09:55:00
2:15 AM,35.6,35.6,100,30.13,5.0,Calm,Calm,-,N/A,,Clear,0,2014-03-05 10:15:00
2:35 AM,33.8,33.8,100,30.13,5.0,SSW,3.5,-,N/A,,Clear,200,2014-03-05 10:35:00
2:55 AM,33.8,33.8,100,30.13,5.0,Calm,Calm,-,N/A,,Clear,0,2014-03-05 10:55:00
3:15 AM,33.8,33.8,100,30.12,4.0,ESE,3.5,-,N/A,,Clear,110,2014-03-05 11:15:00
3:35 AM,32.0,32.0,100,30.13,5.0,Calm,Calm,-,N/A,,Clear,0,2014-03-05 11:35:00
3:55 AM,32.0,32.0,100,30.12,5.0,Calm,Calm,-,N/A,,Clear,0,2014-03-05 11:55:00
4:15 AM,32.0,32.0,100,30.12,4.0,ESE,6.9,-,N/A,,Clear,120,2014-03-05 12:15:00
4:35 AM,32.0,32.0,100,30.12,4.0,Calm,Calm,-,N/A,,Clear,0,2014-03-05 12:35:00
4:55 AM,33.8,33.8,100,30.12,5.0,Calm,Calm,-,N/A,,Clear,0,2014-03-05 12:55:00
5:15 AM,32.0,32.0,100,30.13,5.0,SE,5.8,-,N/A,,Clear,130,2014-03-05 13:15:00
5:35 AM,32.0,32.0,100,30.12,7.0,East,3.5,-,N/A,,Clear,100,2014-03-05 13:35:00
5:55 AM,32.0,32.0,100,30.14,5.0,Calm,Calm,-,N/A,,Clear,0,2014-03-05 13:55:00
6:15 AM,33.8,33.8,100,30.14,5.0,Calm,Calm,-,N/A,,Clear,0,2014-03-05 14:15:00
6:35 AM,35.6,35.6,100,30.16,5.0,Calm,Calm,-,N/A,,Clear,0,2014-03-05 14:35:00
6:55 AM,35.6,35.6,100,30.16,5.0,ENE,3.5,-,N/A,,Clear,70,2014-03-05 14:55:00
7:15 AM,35.6,35.6,100,30.16,5.0,Calm,Calm,-,N/A,,Clear,0,2014-03-05 15:15:00
7:35 AM,39.2,39.2,100,30.17,5.0,SE,5.8,-,N/A,,Clear,130,2014-03-05 15:35:00
7:55 AM,41.0,39.2,93,30.18,8.0,SE,4.6,-,N/A,,Clear,130,2014-03-05 15:55:00
8:15 AM,44.6,39.2,81,30.17,8.0,Calm,Calm,-,N/A,,Clear,0,2014-03-05 16:15:00
8:35 AM,48.2,41.0,76,30.18,9.0,SE,4.6,-,N/A,,Clear,140,2014-03-05 16:35:00
8:55 AM,50.0,39.2,66,30.18,10.0,Calm,Calm,-,N/A,,Clear,0,2014-03-05 16:55:00
9:15 AM,51.8,39.2,62,30.18,9.0,Calm,Calm,-,N/A,,Clear,0,2014-03-05 17:15:00
9:35 AM,53.6,39.2,58,30.18,9.0,Calm,Calm,-,N/A,,Clear,0,2014-03-05 17:35:00
9:55 AM,55.4,39.2,54,30.17,-9999.0,SSW,3.5,-,N/A,,Unknown,200,2014-03-05 17:55:00
10:15 AM,59.0,37.4,45,30.17,10.0,South,4.6,-,N/A,,Clear,180,2014-03-05 18:15:00
10:35 AM,59.0,35.6,42,30.15,10.0,SE,4.6,-,N/A,,Clear,140,2014-03-05 18:35:00
10:55 AM,62.6,37.4,39,30.15,9.0,East,8.1,-,N/A,,Clear,90,2014-03-05 18:55:00
11:15 AM,62.6,35.6,37,30.15,10.0,ESE,4.6,-,N/A,,Clear,120,2014-03-05 19:15:00
11:35 AM,64.4,37.4,37,30.14,9.0,East,5.8,-,N/A,,Clear,100,2014-03-05 19:35:00
11:55 AM,66.2,37.4,35,30.14,9.0,SE,8.1,-,N/A,,Clear,130,2014-03-05 19:55:00
12:15 PM,64.4,35.6,34,30.14,8.0,Calm,Calm,-,N/A,,Clear,0,2014-03-05 20:15:00
12:35 PM,66.2,35.6,32,30.13,10.0,ESE,8.1,-,N/A,,Clear,120,2014-03-05 20:35:00
12:55 PM,66.2,33.8,30,30.12,10.0,SE,4.6,-,N/A,,Clear,130,2014-03-05 20:55:00
1:15 PM,66.2,33.8,30,30.11,10.0,Calm,Calm,-,N/A,,Clear,0,2014-03-05 21:15:00
1:35 PM,66.2,39.2,37,30.11,10.0,NW,12.7,16.1,N/A,,Clear,320,2014-03-05 21:35:00
1:55 PM,64.4,41.0,42,30.11,9.0,NW,16.1,-,N/A,,Clear,320,2014-03-05 21:55:00
2:15 PM,62.6,41.0,45,30.10,8.0,NW,15.0,-,N/A,,Clear,320,2014-03-05 22:15:00
2:35 PM,62.6,41.0,45,30.10,8.0,NW,13.8,-,N/A,,Clear,310,2014-03-05 22:35:00
2:55 PM,62.6,41.0,45,30.10,8.0,NW,13.8,-,N/A,,Clear,310,2014-03-05 22:55:00
3:15 PM,62.6,39.2,42,30.11,8.0,NW,17.3,21.9,N/A,,Clear,310,2014-03-05 23:15:00
3:35 PM,59.0,41.0,51,30.12,7.0,NW,13.8,19.6,N/A,,Clear,310,2014-03-05 23:35:00
3:55 PM,59.0,41.0,51,30.12,7.0,NW,13.8,-,N/A,,Clear,310,2014-03-05 23:55:00
4:15 PM,57.2,44.6,63,30.13,6.0,NW,13.8,19.6,N/A,,Haze,310,2014-03-06 00:15:00
4:35 PM,57.2,44.6,63,30.13,5.0,WNW,12.7,-,N/A,,Haze,300,2014-03-06 00:35:00
4:55 PM,55.4,44.6,67,30.13,5.0,WNW,11.5,-,N/A,,Haze,300,2014-03-06 00:55:00
5:15 PM,55.4,44.6,67,30.13,5.0,NW,10.4,-,N/A,,Haze,310,2014-03-06 01:15:00
5:35 PM,53.6,44.6,72,30.13,4.0,NW,8.1,-,N/A,,Haze,310,2014-03-06 01:35:00
5:55 PM,53.6,44.6,72,30.14,4.0,NW,8.1,-,N/A,,Haze,320,2014-03-06 01:55:00
6:15 PM,51.8,44.6,76,30.14,5.0,NNW,5.8,-,N/A,,Haze,330,2014-03-06 02:15:00
6:35 PM,51.8,44.6,76,30.14,5.0,NW,6.9,-,N/A,,Haze,320,2014-03-06 02:35:00
6:55 PM,51.8,44.6,76,30.14,5.0,NW,9.2,-,N/A,,Haze,320,2014-03-06 02:55:00
7:15 PM,51.8,44.6,76,30.15,5.0,NW,8.1,-,N/A,,Haze,320,2014-03-06 03:15:00
7:35 PM,50.0,44.6,82,30.15,4.0,NNW,8.1,-,N/A,,Haze,340,2014-03-06 03:35:00
7:55 PM,50.0,44.6,82,30.15,4.0,NNW,6.9,-,N/A,,Haze,340,2014-03-06 03:55:00
8:15 PM,48.2,44.6,87,30.15,4.0,NNW,8.1,-,N/A,,Clear,330,2014-03-06 04:15:00
8:35 PM,50.0,41.0,71,30.14,6.0,NNW,5.8,-,N/A,,Haze,330,2014-03-06 04:35:00
8:55 PM,48.2,42.8,82,30.15,5.0,West,4.6,-,N/A,,Haze,280,2014-03-06 04:55:00
9:15 PM,48.2,41.0,76,30.15,7.0,NW,5.8,-,N/A,,Clear,320,2014-03-06 05:15:00
9:35 PM,48.2,41.0,76,30.14,7.0,NW,5.8,-,N/A,,Clear,320,2014-03-06 05:35:00
9:55 PM,48.2,41.0,76,30.14,8.0,West,3.5,-,N/A,,Clear,260,2014-03-06 05:55:00
10:15 PM,48.2,41.0,76,30.13,6.0,NW,3.5,-,N/A,,Haze,320,2014-03-06 06:15:00
10:35 PM,46.4,41.0,81,30.14,6.0,West,5.8,-,N/A,,Haze,260,2014-03-06 06:35:00
10:55 PM,46.4,42.8,87,30.14,3.0,West,6.9,-,N/A,,Partly Cloudy,270,2014-03-06 06:55:00
11:15 PM,46.4,41.0,81,30.14,5.0,West,4.6,-,N/A,,Partly Cloudy,280,2014-03-06 07:15:00
11:35 PM,44.6,39.2,81,30.14,7.0,West,6.9,-,N/A,,Clear,270,2014-03-06 07:35:00
11:55 PM,44.6,39.2,81,30.14,9.0,WNW,3.5,-,N/A,,Clear,290,2014-03-06 07:55:00